Weather History for Billings, MT

Change the Weather History Date:

Wednesday, July 17, 2013

  Actual Average Record
Temperature  
Mean Temperature 71 °F 73 °F  
Max Temperature 82 °F 88 °F 101 °F (1977)
Min Temperature 59 °F 59 °F 45 °F (1982)
Degree Days  
Heating Degree Days 0 0  
Month to date heating degree days 0 12  
Since 1 June heating degree days 73 108  
Since 1 July heating degree days 0 12  
Cooling Degree Days 6 9  
Month to date cooling degree days 173 126  
Year to date cooling degree days 296 228  
Since 1 June cooling degree days 269 211  
Growing Degree Days 20 (Base 50)    
Moisture  
Dew Point 57 °F    
Average Humidity 68    
Maximum Humidity 90    
Minimum Humidity 45    
Precipitation  
Precipitation T in 0.05 in 0.60 in (1987)
Month to date precipitation 0.51 0.79  
Year to date precipitation 7.83 8.77  
Snow  
Snow 0.00 in 0.00 in 0.40 in (1993)
Month to date snowfall 0.0 0.0  
Since 1 June snowfall 0.0 0.0  
Since 1 July snowfall 0.0 0.0  
Snow Depth 0.00 in    
Sea Level Pressure  
Sea Level Pressure 30.09 in    
Wind  
Wind Speed 4 mph (North)    
Max Wind Speed 15 mph    
Max Gust Speed 17 mph    
Visibility 10 miles    
Events Rain    
T = Trace of Precipitation, MM = Missing Value Source: NWS Daily Summary

Daily Weather History Graph

Daily Weather History Graph

Search for Another Location

Airport:

Trip Planner

Search our weather history database for the weather conditions in past years. The results will help you decide how hot, cold, wet, or windy it might be!

Date:

Astronomy

Jul. 17, 2013 Rise Set
Actual Time 5:41 AM MDT 8:59 PM MDT
Civil Twilight 5:04 AM MDT 9:35 PM MDT
Nautical Twilight 4:17 AM MDT 10:22 PM MDT
Astronomical Twilight 3:17 AM MDT 11:21 PM MDT
Moon 3:47 PM MDT (7/17) 12:56 AM MDT (7/17)
Length of Visible Light 16h 30m
Length of Day
15h 17m
Waxing Gibbous, 68% of the Moon is Illuminated
Jul 17
Waxing Gibbous
Jul 22
Full
Jul 29
Last Quarter
Aug 6
New
Aug 14
First Quarter

Hourly Weather History & Observations

Time (MDT) Temp. Heat Index Dew Point Humidity Pressure Visibility Wind Dir Wind Speed Gust Speed Precip Events Conditions
12:53 AM 61.0 °F - 53.1 °F 75% 30.17 in 10.0 mi NNE 6.9 mph - N/A   Partly Cloudy
1:53 AM 60.1 °F - 54.0 °F 80% 30.16 in 10.0 mi NNE 8.1 mph - N/A   Scattered Clouds
2:53 AM 60.1 °F - 54.0 °F 80% 30.14 in 10.0 mi North 8.1 mph - N/A   Scattered Clouds
3:53 AM 60.1 °F - 54.0 °F 80% 30.16 in 10.0 mi NNW 3.5 mph - N/A   Partly Cloudy
4:53 AM 60.1 °F - 55.0 °F 83% 30.16 in 10.0 mi North 4.6 mph - N/A   Scattered Clouds
5:53 AM 60.1 °F - 55.0 °F 83% 30.16 in 10.0 mi Calm Calm - 0.00 in   Mostly Cloudy
6:53 AM 61.0 °F - 55.9 °F 83% 30.16 in 10.0 mi Calm Calm - 0.00 in   Mostly Cloudy
7:53 AM 60.1 °F - 57.0 °F 90% 30.16 in 10.0 mi SSW 4.6 mph - N/A   Mostly Cloudy
8:53 AM 61.0 °F - 55.9 °F 83% 30.16 in 10.0 mi Calm Calm - N/A   Mostly Cloudy
9:53 AM 62.1 °F - 57.0 °F 84% 30.16 in 10.0 mi SW 4.6 mph - 0.00 in Rain Light Rain
10:53 AM 63.0 °F - 57.0 °F 81% 30.15 in 10.0 mi Calm Calm - 0.00 in   Mostly Cloudy
11:53 AM 64.0 °F - 57.0 °F 78% 30.14 in 10.0 mi Calm Calm - N/A   Mostly Cloudy
12:53 PM 70.0 °F - 57.9 °F 65% 30.11 in 10.0 mi Variable 3.5 mph - N/A   Mostly Cloudy
1:53 PM 73.9 °F - 57.0 °F 55% 30.08 in 10.0 mi Calm Calm - N/A   Scattered Clouds
2:53 PM 78.1 °F - 57.0 °F 48% 30.06 in 10.0 mi Variable 3.5 mph - N/A   Scattered Clouds
3:53 PM 79.0 °F - 57.9 °F 48% 30.02 in 10.0 mi Calm Calm - N/A   Scattered Clouds
4:53 PM 80.1 °F 80.6 °F 57.9 °F 47% 30.01 in 10.0 mi ENE 3.5 mph - N/A   Scattered Clouds
5:53 PM 80.1 °F 80.7 °F 59.0 °F 48% 29.98 in 10.0 mi East 4.6 mph - N/A   Scattered Clouds
6:53 PM 80.1 °F 80.9 °F 60.1 °F 50% 29.96 in 10.0 mi ENE 6.9 mph - N/A   Mostly Cloudy
7:53 PM 78.1 °F - 60.1 °F 54% 29.96 in 10.0 mi ESE 6.9 mph - N/A   Mostly Cloudy
8:53 PM 75.9 °F - 61.0 °F 60% 30.03 in 10.0 mi West 8.1 mph - N/A   Mostly Cloudy
9:53 PM 75.9 °F - 60.1 °F 58% 30.03 in 10.0 mi SW 8.1 mph - N/A   Mostly Cloudy
10:53 PM 73.0 °F - 55.9 °F 55% 30.02 in 10.0 mi SW 11.5 mph - N/A   Partly Cloudy
11:53 PM 71.1 °F - 57.0 °F 61% 30.03 in 10.0 mi WSW 8.1 mph - N/A   Partly Cloudy